Date String (YYYY-MM-DD hh:mm:ss) UTC,Instrument flags,absolute air pressure of the measurement (hPa),sample flow rate (lpm),inlet stack bypass flow (lpm),air temperature of the measurement (°C),ambient temperature measured by the external sensor (°C),aerosol sample conditioner tube jacket temperature (°C),OPC LED temperature (°C),internal box temperature (°C),relative humidity of the measurement (%),span deviation,mass concentration of particles derived from Lorenz-Mie calculation of OPC scattering (μg/m³),mass concentration of particles derived from Lorenz-Mie calculation of OPC scattering (μg/m³),mass concentration of particles derived from Lorenz-Mie calculation of OPC scattering (μg/m³)
DateTimeUTC,F1_M11,P_M11,Q1_M11,Q2_M11,T1_M11,T2_M11,T3_M11,T4_M11,T5_M11,U1_M11,ZSPAN_M11,X0_M11,X2_M11,X1_M11
2024-01-20 11:00:00,SystemResetWarning,0829.5,5.01,000.00,018.7,017.9,000.0,027.2,020.0,11.6,0000.0,0013.90,0007.89,0007.35
2024-01-20 11:01:00,SystemResetWarning,0829.5,5.01,000.00,018.7,017.9,000.0,027.2,020.0,11.6,0000.0,0013.38,0007.95,0007.38
2024-01-20 11:02:00,SystemResetWarning,0829.4,5.01,000.00,018.7,017.9,000.0,027.2,020.0,11.6,0000.0,0013.64,0007.99,0007.41
2024-01-20 11:03:00,SystemResetWarning,0829.3,5.00,000.00,018.7,018.0,000.0,027.2,020.3,11.5,0000.0,0013.66,0008.01,0007.43
2024-01-20 11:04:00,SystemResetWarning,0829.4,5.00,000.00,018.9,018.6,000.0,027.2,020.8,11.4,0000.0,0013.86,0008.11,0007.49
2024-01-20 11:05:00,SystemResetWarning,0829.4,5.00,000.00,019.0,019.1,000.0,027.2,020.9,11.4,0000.3,0014.03,0008.20,0007.57
2024-01-20 11:06:00,SystemResetWarning,0829.3,4.99,000.00,019.1,019.1,000.0,027.2,020.6,11.4,0002.2,0013.82,0008.26,0007.63
2024-01-20 11:07:00,SystemResetWarning,0829.3,5.00,000.00,019.1,018.9,000.0,027.2,020.4,11.4,0002.4,0013.57,0008.39,0007.72
2024-01-20 11:08:00,SystemResetWarning,0829.3,5.00,000.00,019.0,018.8,000.0,027.2,020.3,11.4,0002.7,0014.25,0008.48,0007.79
2024-01-20 11:09:00,SystemResetWarning,0829.3,5.00,000.00,019.0,018.7,000.0,027.2,020.2,11.3,0002.6,0014.40,0008.50,0007.77
2024-01-20 11:10:00,SystemResetWarning,0829.3,5.00,000.00,019.0,018.6,000.0,027.2,020.2,11.3,0002.5,0014.41,0008.46,0007.73
2024-01-20 11:11:00,SystemResetWarning,0829.4,5.00,000.00,019.0,018.5,000.0,027.2,020.1,11.4,0002.8,0015.06,0008.47,0007.74
2024-01-20 11:12:00,SystemResetWarning,0829.3,4.99,000.00,018.9,018.4,000.0,027.2,020.1,11.4,0003.0,0015.32,0008.42,0007.72
2024-01-20 11:13:00,SystemResetWarning,0829.3,5.00,000.00,018.9,018.4,000.0,027.2,020.0,11.4,0003.0,0014.91,0008.42,0007.75
2024-01-20 11:14:00,SystemResetWarning,0829.4,5.00,000.00,018.9,018.3,000.0,027.2,020.0,11.4,0002.9,0015.38,0008.42,0007.78
2024-01-20 11:15:00,SystemResetWarning,0829.3,5.00,000.00,018.8,018.3,000.0,027.2,020.0,11.4,0002.6,0015.21,0008.34,0007.76
2024-01-20 11:16:00,SystemResetWarning,0829.4,5.00,000.00,018.8,018.2,000.0,027.2,020.0,11.5,0001.9,0015.29,0008.29,0007.71
2024-01-20 11:17:00,SystemResetWarning,0829.3,5.00,000.00,018.8,018.2,000.0,027.2,020.0,11.4,0001.4,0015.63,0008.22,0007.65
2024-01-20 11:18:00,SystemResetWarning,0829.3,5.00,000.00,018.8,018.1,000.0,027.2,020.0,11.4,0000.8,0015.98,0008.11,0007.55
2024-01-20 11:19:00,SystemResetWarning,0829.3,5.01,000.00,018.8,018.1,000.0,027.2,020.0,11.5,0000.8,0015.10,0007.98,0007.43
2024-01-20 11:20:00,SystemResetWarning,0829.4,5.01,000.00,018.8,018.1,000.0,027.2,020.0,11.4,0001.0,0014.84,0007.88,0007.36
2024-01-20 11:21:00,SystemResetWarning,0829.4,5.01,000.00,018.8,018.1,000.0,027.2,020.0,11.5,0001.1,0015.50,0007.74,0007.25
2024-01-20 11:22:00,SystemResetWarning,0829.4,5.00,000.00,018.8,018.0,000.0,027.2,020.0,11.5,0000.4,0014.94,0007.58,0007.10
2024-01-20 11:23:00,SystemResetWarning,0829.4,5.00,000.00,018.8,018.0,000.0,027.2,020.0,11.4,0000.3,0014.45,0007.46,0006.97
2024-01-20 11:24:00,SystemResetWarning,0829.3,5.00,000.00,018.8,018.0,000.0,027.2,020.0,11.4,0000.6,0013.61,0007.23,0006.75
2024-01-20 11:25:00,SystemResetWarning,0829.3,5.00,000.00,018.8,018.0,000.0,027.2,020.0,11.4,0000.6,0012.63,0007.04,0006.56
2024-01-20 11:26:00,SystemResetWarning,0829.3,4.99,000.00,018.8,018.0,000.0,027.2,020.0,11.4,0000.6,0012.66,0006.93,0006.39
2024-01-20 11:27:00,SystemResetWarning,0829.3,4.99,000.00,018.8,018.0,000.0,027.2,020.0,11.5,0001.3,0012.36,0006.77,0006.22
2024-01-20 11:28:00,SystemResetWarning,0829.3,5.00,000.00,018.8,017.9,000.0,027.2,020.0,11.5,0001.2,0011.70,0006.62,0006.10
2024-01-20 11:29:00,SystemResetWarning,0829.2,5.02,000.00,018.7,017.9,000.0,027.2,020.0,11.5,0000.0,0010.89,0006.49,0005.99
2024-01-20 11:30:00,SystemResetWarning,0829.2,4.99,000.00,018.7,017.9,000.0,027.2,020.0,11.4,0000.0,0010.96,0006.42,0005.93
2024-01-20 11:31:00,SystemResetWarning,0829.3,4.99,000.00,018.7,017.9,000.0,027.2,020.0,11.4,0000.0,0010.90,0006.38,0005.92
2024-01-20 11:32:00,SystemResetWarning,0829.2,5.01,000.00,018.7,017.9,000.0,027.2,020.0,11.4,0000.0,0010.12,0006.42,0005.93
2024-01-20 11:33:00,SystemResetWarning,0829.2,5.02,000.00,018.7,017.9,000.0,027.2,020.0,11.4,0001.0,0009.91,0006.43,0005.92
2024-01-20 11:34:00,SystemResetWarning,0829.2,4.98,000.00,018.7,017.9,000.0,027.2,020.0,11.4,0002.6,0009.97,0006.44,0005.93
2024-01-20 11:35:00,SystemResetWarning,0829.2,4.99,000.00,018.7,017.9,000.0,027.2,020.0,11.5,0000.2,0010.41,0006.48,0005.94
2024-01-20 11:36:00,SystemResetWarning,0829.2,5.01,000.00,018.7,017.9,000.0,027.2,020.2,11.5,0000.0,0010.79,0006.52,0005.95
2024-01-20 11:37:00,SystemResetWarning,0829.2,5.01,000.00,018.9,018.5,000.0,027.2,020.7,11.4,0000.0,0010.95,0006.48,0005.93
2024-01-20 11:38:00,SystemResetWarning,0829.3,4.98,000.00,019.0,019.0,000.0,027.2,020.9,11.3,0000.0,0011.55,0006.45,0005.92
2024-01-20 11:39:00,SystemResetWarning,0829.2,4.99,000.00,019.1,019.0,000.0,027.2,020.6,11.2,0000.0,0011.59,0006.47,0005.92
2024-01-20 11:40:00,SystemResetWarning,0829.2,5.01,000.00,019.0,018.9,000.0,027.2,020.4,11.3,0000.0,0011.55,0006.46,0005.92
2024-01-20 11:41:00,SystemResetWarning,0829.3,5.01,000.00,019.0,018.8,000.0,027.2,020.3,11.3,0000.0,0011.63,0006.47,0005.91
2024-01-20 11:42:00,SystemResetWarning,0829.4,5.00,000.00,019.0,018.7,000.0,027.2,020.3,11.4,0000.0,0012.59,0006.47,0005.89
2024-01-20 11:43:00,SystemResetWarning,0829.3,4.99,000.00,019.0,018.6,000.0,027.2,020.2,11.4,0000.9,0013.34,0006.46,0005.87
2024-01-20 11:44:00,SystemResetWarning,0829.2,5.00,000.00,018.9,018.5,000.0,027.2,020.1,11.4,0001.8,0013.38,0006.45,0005.86
2024-01-20 11:45:00,SystemResetWarning,0829.2,4.99,000.00,018.9,018.4,000.0,027.2,020.1,11.4,0000.0,0013.79,0006.38,0005.83
2024-01-20 11:46:00,SystemResetWarning,0829.2,4.99,000.00,018.9,018.3,000.0,027.2,020.1,11.3,0000.0,0014.08,0006.36,0005.82
2024-01-20 11:47:00,SystemResetWarning,0829.3,5.00,000.00,018.9,018.3,000.0,027.2,020.0,11.3,0000.0,0013.79,0006.34,0005.81
2024-01-20 11:48:00,SystemResetWarning,0829.2,5.00,000.00,018.8,018.3,000.0,027.2,020.0,11.4,0000.0,0013.65,0006.32,0005.82
2024-01-20 11:49:00,SystemResetWarning,0829.2,5.00,000.00,018.8,018.2,000.0,027.2,020.0,11.4,0000.0,0012.83,0006.30,0005.84
2024-01-20 11:50:00,SystemResetWarning,0829.2,5.00,000.00,018.8,018.2,000.0,027.2,020.0,11.4,0000.0,0012.69,0006.32,0005.85
2024-01-20 11:51:00,SystemResetWarning,0829.2,5.00,000.00,018.8,018.1,000.0,027.2,020.0,11.4,0000.0,0012.67,0006.32,0005.86
2024-01-20 11:52:00,SystemResetWarning,0829.2,4.99,000.00,018.8,018.1,000.0,027.2,020.0,11.4,0000.0,0012.66,0006.32,0005.89
2024-01-20 11:53:00,SystemResetWarning,0829.2,5.00,000.00,018.8,018.1,000.0,027.2,020.0,11.4,0000.0,0011.79,0006.38,0005.92
2024-01-20 11:54:00,SystemResetWarning,0829.2,5.00,000.00,018.8,018.1,000.0,027.2,020.0,11.4,0000.0,0010.99,0006.44,0005.96
2024-01-20 11:55:00,SystemResetWarning,0829.2,5.00,000.00,018.8,018.0,000.0,027.2,020.0,11.4,0000.0,0010.99,0006.46,0005.99
2024-01-20 11:56:00,SystemResetWarning,0829.1,5.02,000.00,018.8,018.0,000.0,027.2,020.0,11.4,0000.0,0010.85,0006.52,0006.03
2024-01-20 11:57:00,SystemResetWarning,0829.1,5.00,000.00,018.8,018.0,000.0,027.2,020.0,11.4,0000.0,0010.38,0006.56,0006.07
2024-01-20 11:58:00,SystemResetWarning,0829.1,4.99,000.00,018.7,018.0,000.0,027.2,020.0,11.4,0000.0,0010.53,0006.56,0006.08
2024-01-20 11:59:00,SystemResetWarning,0829.1,4.99,000.00,018.7,018.0,000.0,027.2,020.0,11.4,0000.0,0010.75,0006.57,0006.09
